Change the Weather History Date:

Sunday, May 12, 2013

  Actual Average Record
Temperature  
Mean Temperature 12 °F -  
Max Temperature 18 °F 27 °F 60 °F (2003)
Min Temperature 6 °F 18 °F 6 °F (2013)
Degree Days  
Heating Degree Days 53    
Moisture  
Dew Point 9 °F    
Average Humidity 83    
Maximum Humidity 92    
Minimum Humidity 73    
Precipitation  
Precipitation 0.00 in - - ()
Sea Level Pressure  
Sea Level Pressure 29.83 in    
Wind  
Wind Speed - (North)    
Max Wind Speed -    
Max Gust Speed -    
Visibility 5 miles    
Events Snow    
Averages and records for this station are not official NWS values.
T = Trace of Precipitation, MM = Missing Value Source: NWS Daily Summary

Daily Weather History Graph

Daily Weather History Graph

Search for Another Location

Airport or City:

Trip Planner

Search our weather history database for the weather conditions in past years. The results will help you decide how hot, cold, wet, or windy it might be!

Date:

Astronomy

May. 12, 2013 Rise Set
Actual Time 4:10 AM AKDT 1:34 AM AKDT
Civil Twilight Sun does not rise Sun does not rise
Nautical Twilight Sun does not rise Sun does not rise
Astronomical Twilight Sun does not rise Sun does not rise
Moon 5:21 AM AKDT (5/12) 4:09 AM AKDT (5/12)
Length of Visible Light 24h 00m
Length of Day
21h 24m
Waxing Crescent, 7% of the Moon is Illuminated
May 12
Waxing Crescent
May 17
First Quarter
May 24
Full
May 31
Last Quarter
Jun 8
New

Hourly Weather History & Observations

Time (AKDT) Temp. Dew Point Humidity Pressure Visibility Wind Dir Wind Speed Gust Speed Precip Events Conditions
1:12 AM 10.4 °F 3.2 °F 73% 29.87 in 10.0 mi North - - N/A   Scattered Clouds
1:56 AM 7.2 °F 3.0 °F 83% 29.88 in 10.0 mi North - - N/A   Overcast
2:56 AM 7.2 °F 3.0 °F 83% 29.87 in 10.0 mi North - - N/A   Mostly Cloudy
3:56 AM 10.0 °F 6.1 °F 84% 29.86 in 8.0 mi North - - 0.00 in Snow Light Snow
4:04 AM 10.4 °F 6.8 °F 85% 29.85 in 1.8 mi North - - 0.00 in Snow Light Snow
4:07 AM 10.4 °F 6.8 °F 85% 29.85 in 1.2 mi North - - 0.00 in Snow Light Snow
4:15 AM 10.4 °F 6.8 °F 85% 29.85 in 1.2 mi North - - 0.00 in Snow Light Snow
4:21 AM 10.4 °F 6.8 °F 85% 29.85 in 0.8 mi North - - 0.00 in Snow Light Snow
4:34 AM 10.4 °F 8.6 °F 92% 29.85 in 1.0 mi North - - 0.00 in Snow Light Snow
4:42 AM 10.4 °F 6.8 °F 85% 29.84 in 1.5 mi North - - 0.00 in Snow Light Snow
4:45 AM 10.4 °F 6.8 °F 85% 29.84 in 2.0 mi North - - 0.00 in Snow Light Snow
4:56 AM 10.0 °F 6.1 °F 84% 29.85 in 7.0 mi North - - 0.00 in   Mostly Cloudy
5:25 AM 6.8 °F 3.2 °F 85% 29.84 in 10.0 mi North - - 0.00 in   Mostly Cloudy
5:43 AM 6.8 °F 3.2 °F 85% 29.84 in 9.0 mi North - - 0.00 in   Overcast
5:56 AM 7.2 °F 4.1 °F 87% 29.85 in 5.0 mi North - - 0.00 in   Overcast
6:46 AM 10.4 °F 6.8 °F 85% 29.83 in 2.0 mi North - - 0.00 in Snow Light Snow
6:56 AM 10.4 °F 6.8 °F 85% 29.83 in 1.8 mi North - - N/A Snow Light Snow
7:09 AM 10.4 °F 6.8 °F 85% 29.83 in 3.0 mi North - - 0.00 in Snow Light Snow
7:20 AM 10.4 °F 6.8 °F 85% 29.83 in 2.0 mi North - - 0.00 in Snow Light Snow
7:27 AM 10.4 °F 6.8 °F 85% 29.83 in 3.0 mi North - - 0.00 in Snow Light Snow
7:56 AM 10.0 °F 5.0 °F 80% 29.84 in 6.0 mi North - - 0.00 in Snow Light Snow
8:34 AM 6.8 °F 3.2 °F 85% 29.83 in 10.0 mi North - - 0.00 in   Overcast
8:56 AM 6.1 °F 2.1 °F 84% 29.85 in 10.0 mi North - - 0.00 in   Overcast
9:18 AM 8.6 °F 3.2 °F 79% 29.83 in 10.0 mi North - - N/A   Scattered Clouds
9:56 AM 8.1 °F 4.1 °F 84% 29.85 in 10.0 mi North - - N/A   Scattered Clouds
10:05 AM 8.6 °F 3.2 °F 79% 29.83 in 10.0 mi North - - N/A   Scattered Clouds
10:19 AM 8.6 °F 3.2 °F 79% 29.83 in 10.0 mi North - - N/A   Mostly Cloudy
10:28 AM 8.6 °F 3.2 °F 79% 29.83 in 10.0 mi North - - N/A   Mostly Cloudy
10:35 AM 8.6 °F 3.2 °F 79% 29.83 in 10.0 mi North - - N/A   Mostly Cloudy
10:56 AM 10.0 °F 4.1 °F 77% 29.84 in 10.0 mi North - - N/A   Overcast
11:30 AM 10.4 °F 5.0 °F 79% 29.82 in 10.0 mi North - - N/A   Mostly Cloudy
11:56 AM 11.1 °F 5.0 °F 76% 29.83 in 10.0 mi North - - N/A   Overcast
12:56 PM 12.0 °F 7.2 °F 81% 29.83 in 10.0 mi North - - N/A   Mostly Cloudy
1:08 PM 12.2 °F 6.8 °F 79% 29.81 in 7.0 mi North - - N/A   Overcast
1:27 PM 12.2 °F 8.6 °F 85% 29.81 in 3.0 mi North - - 0.00 in Snow Light Snow
1:36 PM 12.2 °F 8.6 °F 85% 29.81 in 2.5 mi North - - 0.00 in Snow Light Snow
1:46 PM 12.2 °F 8.6 °F 85% 29.81 in 4.0 mi North - - 0.00 in Snow Light Snow
1:56 PM 13.1 °F 9.1 °F 84% 29.82 in 4.0 mi North - - 0.00 in Snow Light Snow
2:01 PM 12.2 °F 8.6 °F 85% 29.81 in 6.0 mi North - - 0.00 in Snow Light Snow
2:56 PM 16.2 °F 11.1 °F 81% 29.81 in 5.0 mi North - - 0.00 in Snow Light Snow
3:56 PM 18.1 °F 13.1 °F 81% 29.81 in 7.0 mi North - - 0.00 in   Mostly Cloudy
4:56 PM 18.1 °F 14.0 °F 84% 29.81 in 6.0 mi North - - 0.00 in Snow Light Snow
5:13 PM 17.6 °F 14.0 °F 86% 29.79 in 3.0 mi North - - 0.00 in Snow Light Snow
5:28 PM 17.6 °F 14.0 °F 86% 29.80 in 2.5 mi North - - 0.00 in Snow Light Snow
5:46 PM 17.6 °F 14.0 °F 86% 29.80 in 1.2 mi North - - 0.00 in Snow Light Snow
5:56 PM 18.1 °F 14.0 °F 84% 29.81 in 2.0 mi North - - 0.00 in Snow Light Snow
6:05 PM 17.6 °F 14.0 °F 86% 29.80 in 6.0 mi North - - 0.00 in Snow Light Snow
6:35 PM 17.6 °F 14.0 °F 86% 29.80 in 2.0 mi North - - 0.00 in   Overcast
6:41 PM 17.6 °F 14.0 °F 86% 29.80 in 1.8 mi North - - 0.00 in Snow Light Snow
6:56 PM 17.6 °F 14.0 °F 86% 29.81 in 1.5 mi North - - N/A Snow Light Snow
7:04 PM 17.6 °F 14.0 °F 86% 29.81 in 1.2 mi North - - 0.00 in Snow Light Snow
7:12 PM 17.6 °F 14.0 °F 86% 29.81 in 1.8 mi North - - 0.00 in Snow Light Snow
7:22 PM 17.6 °F 14.0 °F 86% 29.81 in 1.5 mi North - - 0.00 in Snow Light Snow
7:37 PM 17.6 °F 12.2 °F 79% 29.82 in 1.2 mi North - - 0.00 in Snow Light Snow
7:45 PM 17.6 °F 12.2 °F 79% 29.82 in 2.0 mi North - - 0.00 in Snow Light Snow
7:49 PM 17.6 °F 12.2 °F 79% 29.82 in 3.0 mi North - - 0.00 in   Mostly Cloudy
7:56 PM 17.1 °F 13.1 °F 84% 29.83 in 2.5 mi North - - 0.00 in Snow Light Snow
8:06 PM 15.8 °F 12.2 °F 86% 29.82 in 4.0 mi North - - 0.00 in   Overcast
8:43 PM 15.8 °F 10.4 °F 79% 29.83 in 5.0 mi North - - 0.00 in   Haze
8:56 PM 15.1 °F 11.1 °F 84% 29.84 in 3.0 mi North - - 0.00 in Snow Light Snow
9:04 PM 15.8 °F 10.4 °F 79% 29.83 in 2.0 mi North - - 0.00 in Snow Light Snow
9:22 PM 15.8 °F 10.4 °F 79% 29.83 in 3.0 mi North - - 0.00 in Snow Light Snow
9:28 PM 15.8 °F 10.4 °F 79% 29.84 in 1.8 mi North - - 0.00 in Snow Light Snow
9:31 PM 15.8 °F 10.4 °F 79% 29.83 in 1.2 mi North - - 0.00 in Snow Light Snow
9:56 PM 14.0 °F 10.4 °F 86% 29.84 in 1.0 mi North - - N/A Snow Light Snow
10:07 PM 14.0 °F 10.4 °F 86% 29.84 in 1.2 mi North - - 0.00 in Snow Light Snow
10:13 PM 14.0 °F 10.4 °F 86% 29.84 in - North - - 0.00 in Snow Light Snow
10:29 PM 14.0 °F 10.4 °F 86% 29.84 in - North - - 0.00 in Snow Light Snow
10:39 PM 14.0 °F 10.4 °F 86% 29.85 in 2.0 mi North - - 0.00 in Snow Light Snow
10:56 PM 14.0 °F 9.1 °F 81% 29.86 in 2.0 mi North - - 0.00 in Snow Light Snow
11:19 PM 14.0 °F 8.6 °F 79% 29.85 in 1.8 mi North - - 0.00 in Snow Light Snow
11:23 PM 12.2 °F 8.6 °F 85% 29.85 in 2.0 mi North - - 0.00 in Snow Light Snow
11:56 PM 13.1 °F 9.1 °F 84% 29.86 in 1.5 mi North - - 0.00 in Snow Light Snow